Location: StarHub Observatory
(35.2598°N, 77.5855°W)
Time: 21:23:47
(UTC-04:00)

Hubble Space Telescope - Pass Details

Date: 04 June 2022
Orbit: 532 x 536 km, 28.5° (Epoch: 28 June)

Event Time Altitude Azimuth Distance (km) Brightness Sun altitude
Exits shadow 04:10:28 11° 155° (SSE) 1,719 3.1 -18.0°
Drops below altitude 10° 04:11:23 10° 142° (SE) 1,774 3.3 -17.9°
Sets 04:15:18 0° 105° (ESE) 2,667 4.7 -17.3°
